STARLINK-32948, 63123

Orbit data source: Space-Track

STARLINK-32948, 63123 is a payload satellite owned by SpaceX/Seattle (US) in LEO that was launched on Thu, 27 Feb 2025 UTC via an FALCON 9 launch vehicle from the Air Force Eastern Test Range (AFETR). Payload-class satellites include a variety of spacecraft equipped with specific instruments for various scientific and technological missions. These include communications satellites like Starlink; space stations such as the ISS; scientific satellites like the Hubble; Earth observation satellites from companies like Planet Labs, Umbra, and HawkEye 360; GPS; miniature CubeSats for education and research; and military/defense satellites.

Loading next visibility...
Identifier
63123, 2025-039V
Orbit
LEO
Last TLE update
8 hours ago
Origin
Manufacturer
SpaceX/Seattle
Mission
Operational Commercial Communications
Bus & Motor
STARLINK V2M, Unknown motor
Mass
730 kg wet, ~700 kg dry
Launch date (UTC)
2025-02-27 (4 months ago)
Launch vehicle
FALCON 9
Launch site
Air Force Eastern Test Range (AFETR)
Object type
Payload
Rocket body
Debris
Shape & HBR
Box + 2 Pan, 29 m
Radar Cross Section
33.884 m², Large (>1 m²)

Expand to show TLE details & history

TLE from 8 hours ago
0 STARLINK-32948
1 63123U 25039V   25186.44090954  .00016529  00000-0  60871-3 0  9999
2 63123  42.9975 329.0790 0001354 292.1960  67.8748 15.27585210 20250
Epoch: 2025-07-05T10:34Z
TLE epoch observation values (Epoch: 2025-07-05T10:34:54.584Z)
Latitude
Longitude
-113.32734°
Altitude
482.459 km
Speed
7.626 km/s
True Right ascension
21h 56m 18s
True Declination
0° 00' 00"
Sunlit
Object was in full shadow at epoch
Visualization orbit readout
Latitude
34.60784°
Longitude
-67.84283°
Altitude
484.871 km
Speed
7.628 km/s
Apparent Right ascension
22h 05m 08s
Apparent Declination
-1° 33' 25"
Sunlit
Object is in daylight
Visualization observer readout
Local Sidereal Time
06:35:54
Azimuth
295.148° NW
Elevation
-29.092°
Doppler factor
1
Orbital elements
Apogee altitude
485.908 km
Perigee altitude
484.05 km
Semi-major axis
6,863.116 km
Eccentricity
0.00014
Inclination
42.9975°
RAAN
329.079°
Arg. of periapsis
292.196°
True anomaly
Unknown
Mean anomaly
67.8748°
Eccentric anomaly
Unknown
Mean motion
3.81734 °/min
Orbital period
94.31 mins
BSTAR
0.00060871
Loading maneuver chart data...
Loading SW <> Apogee altitude chart data...
Loading historical data...
Loading historical data...
Loading historical data...
Loading historical data...
Loading historical data...
Loading historical data...
Loading historical data...

STARLINK-32948 Visibility forecast

Observer location: undefined°, undefined°

Span
Click to sort rows by Start time (UTC) header in descending order
Start Az.
Max El. time (UTC)
Max El. Az.
Max El.
End time (UTC)
End Az.
6 mins2025-07-05 18:55:20.308Z269.225° W2025-07-05 18:58:20.308Z200.979° SSW26.991°2025-07-05 19:01:20.308Z148.256° SSE
5 mins2025-07-06 13:31:20.308Z242.143° WSW2025-07-06 13:33:20.308Z128.383° SE44.235°2025-07-06 13:36:20.308Z73.698° E
5 mins2025-07-06 15:10:20.308Z289.518° WNW2025-07-06 15:12:20.308Z359.508° N38.324°2025-07-06 15:15:20.308Z72.002° E
5 mins2025-07-06 16:49:20.308Z293.058° NW2025-07-06 16:51:20.308Z350.423° N43.521°2025-07-06 16:54:20.308Z98.613° ESE
5 mins2025-07-06 18:28:20.308Z260.654° W2025-07-06 18:30:20.308Z208.576° SW27.839°2025-07-06 18:33:20.308Z149.111° SSE
|